SL-16 R/B (22220 NORAD) Tracking and Keplerian Element Data

This shows tracking and keplerian element data for the satellite.

Feedback or suggestion? Click here.




ElementValue
Catalog22220
NameSL-16 R/B
Epoch Orbit50780
Epoch Day16.11757459
Epoch Year2022
RAAN135.5513
Inclination71.0003
Eccentricity0.0014951
Argument of Perigee245.9967
Mean Anonmoly286.9294
Mean Motion14.16481152
Decay Rate1.65E-06
L11 22220U 92076B 22016.11757459 .00000165 00000+0 10678-3 0 9998
L22 22220 71.0003 135.5513 0014951 245.9967 286.9294 14.16481152507809

Live tracking and technical data element details for SL-16 R/B (NORAD 22220). SL-16 R/B can be tracked NOW for your location showing map with azimuth and elevation plus other details from your city location.

Track the satellite on the map from your city or location and see movement details for azimuth, elevation, latitude, longitude, range, height, and movement on the map or in text.







IsCatalogInMostPopularTable: catalog: 22220, numindb: 248
Update: records affected: 1



GetName: 22220 SL-16 R/B

Hit Count: updated at: Mon, 17 Jan 2022 00:51:47 GMT